�������l�o���
Date,Time,MP-1(��Sv/h),MP-2(��Sv/h),MP-3(��Sv/h),MP-4(��Sv/h),MP-5(��Sv/h),MP-6(��Sv/h),MP-7(��Sv/h),MP-8(��Sv/h),����,����(m/s),���J
2020/05/03,00:00,0.711,1.023,0.673,1.236,0.884,0.405,0.702,0.665,�쐼,5.3,��
2020/05/03,00:10,0.711,1.022,0.671,1.235,0.890,0.406,0.704,0.663,���쐼,6.9,��
2020/05/03,00:20,0.712,1.022,0.673,1.235,0.886,0.406,0.704,0.663,���쐼,10.0,��
2020/05/03,00:30,0.714,1.022,0.672,1.237,0.885,0.407,0.705,0.664,��,10.5,��
2020/05/03,00:40,0.711,1.022,0.672,1.237,0.887,0.407,0.705,0.664,��,7.9,��
2020/05/03,00:50,0.711,1.023,0.672,1.237,0.886,0.406,0.705,0.662,��,7.5,��
2020/05/03,01:00,0.712,1.022,0.672,1.236,0.887,0.407,0.705,0.662,��,5.8,��
2020/05/03,01:10,0.710,1.021,0.671,1.236,0.887,0.405,0.704,0.662,��,4.5,��
2020/05/03,01:20,0.710,1.025,0.671,1.237,0.887,0.405,0.704,0.662,���k��,5.5,��
2020/05/03,01:30,0.709,1.023,0.673,1.236,0.886,0.404,0.704,0.664,��,6.7,��
2020/05/03,01:40,0.710,1.023,0.671,1.235,0.886,0.405,0.703,0.662,��,5.0,��
2020/05/03,01:50,0.711,1.022,0.671,1.236,0.887,0.405,0.703,0.663,���k��,3.3,��
2020/05/03,02:00,0.711,1.023,0.671,1.234,0.887,0.407,0.703,0.663,��,4.8,��
2020/05/03,02:10,0.707,1.022,0.671,1.236,0.886,0.405,0.704,0.663,��,3.9,��
2020/05/03,02:20,0.710,1.021,0.671,1.235,0.887,0.406,0.705,0.662,��,3.4,��
2020/05/03,02:30,0.707,1.021,0.672,1.235,0.888,0.406,0.702,0.664,-,CALM,��
2020/05/03,02:40,0.709,1.020,0.670,1.235,0.887,0.405,0.702,0.662,�k�k��,1.4,��
2020/05/03,02:50,0.709,1.023,0.669,1.235,0.886,0.405,0.703,0.662,�k,1.9,��
2020/05/03,03:00,0.711,1.021,0.671,1.234,0.888,0.405,0.702,0.663,�k,1.9,��
2020/05/03,03:10,0.711,1.022,0.672,1.236,0.886,0.406,0.703,0.663,�k�k��,1.7,��
2020/05/03,03:20,0.710,1.019,0.669,1.234,0.888,0.404,0.703,0.663,���k��,1.7,��
2020/05/03,03:30,0.709,1.019,0.671,1.235,0.884,0.405,0.703,0.663,���k��,0.9,��
2020/05/03,03:40,0.709,1.023,0.670,1.235,0.887,0.404,0.704,0.664,�k�k��,1.7,��
2020/05/03,03:50,0.710,1.021,0.672,1.235,0.886,0.405,0.702,0.662,�k,0.9,��
2020/05/03,04:00,0.709,1.019,0.670,1.237,0.887,0.404,0.703,0.662,�k�k��,0.9,��
2020/05/03,04:10,0.710,1.022,0.670,1.232,0.886,0.406,0.702,0.662,�k�k��,1.5,��
2020/05/03,04:20,0.709,1.021,0.669,1.232,0.885,0.405,0.702,0.664,�k�k��,1.2,��
2020/05/03,04:30,0.710,1.021,0.670,1.237,0.887,0.404,0.703,0.662,�k��,0.6,��
2020/05/03,04:40,0.711,1.021,0.672,1.235,0.885,0.404,0.703,0.663,-,CALM,��
2020/05/03,04:50,0.709,1.019,0.672,1.233,0.886,0.406,0.703,0.664,�k��,0.6,��
2020/05/03,05:00,0.710,1.023,0.672,1.236,0.889,0.405,0.701,0.663,-,CALM,��
2020/05/03,05:10,0.708,1.021,0.670,1.237,0.886,0.405,0.703,0.662,-,CALM,��
2020/05/03,05:20,0.708,1.021,0.671,1.235,0.887,0.404,0.702,0.663,��,0.6,��
2020/05/03,05:30,0.709,1.023,0.672,1.236,0.887,0.405,0.704,0.665,�쐼,0.9,��
2020/05/03,05:40,0.710,1.023,0.672,1.237,0.887,0.406,0.705,0.662,���쐼,0.6,��
2020/05/03,05:50,0.709,1.022,0.669,1.235,0.884,0.405,0.704,0.663,��,0.8,��
2020/05/03,06:00,0.710,1.023,0.671,1.236,0.887,0.405,0.705,0.662,��쐼,1.7,��
2020/05/03,06:10,0.710,1.023,0.671,1.233,0.886,0.405,0.704,0.663,��,2.8,��
2020/05/03,06:20,0.710,1.023,0.672,1.235,0.886,0.405,0.704,0.663,��,2.2,��
2020/05/03,06:30,0.711,1.025,0.671,1.237,0.886,0.405,0.704,0.665,��,1.9,��
2020/05/03,06:40,0.708,1.025,0.671,1.235,0.889,0.405,0.705,0.664,��,2.5,��
2020/05/03,06:50,0.708,1.021,0.670,1.241,0.887,0.406,0.703,0.664,��,2.5,��
2020/05/03,07:00,0.709,1.021,0.672,1.238,0.888,0.405,0.703,0.664,��,2.6,��
2020/05/03,07:10,0.712,1.020,0.672,1.237,0.888,0.405,0.704,0.663,��,3.2,��
2020/05/03,07:20,0.710,1.023,0.670,1.238,0.885,0.403,0.704,0.664,��,2.8,��
2020/05/03,07:30,0.708,1.019,0.671,1.237,0.885,0.404,0.705,0.663,��,2.3,��
2020/05/03,07:40,0.709,1.019,0.672,1.237,0.886,0.404,0.704,0.664,��,2.3,��
2020/05/03,07:50,0.709,1.019,0.671,1.237,0.886,0.403,0.703,0.663,��쐼,1.7,��
2020/05/03,08:00,0.709,1.023,0.671,1.236,0.888,0.403,0.704,0.664,��,1.7,��
2020/05/03,08:10,0.709,1.021,0.672,1.239,0.888,0.404,0.704,0.660,��쓌,2.0,��
2020/05/03,08:20,0.710,1.022,0.672,1.238,0.887,0.403,0.702,0.661,��쓌,2.2,��
2020/05/03,08:30,0.710,1.021,0.673,1.237,0.887,0.404,0.702,0.660,��,1.5,��
2020/05/03,08:40,0.709,1.022,0.674,1.238,0.888,0.403,0.702,0.662,��쓌,0.9,��
2020/05/03,08:50,0.709,1.024,0.673,1.239,0.887,0.404,0.702,0.660,��쓌,1.4,��
2020/05/03,09:00,0.707,1.019,0.673,1.238,0.888,0.405,0.703,0.661,�쓌,0.6,��
2020/05/03,09:10,0.708,1.023,0.672,1.237,0.888,0.404,0.699,0.661,���쓌,1.5,��
2020/05/03,09:20,0.706,1.022,0.671,1.235,0.887,0.405,0.702,0.660,���쓌,2.0,��
2020/05/03,09:30,0.708,1.024,0.670,1.238,0.889,0.403,0.701,0.660,��,1.2,��
2020/05/03,09:40,0.708,1.024,0.671,1.236,0.887,0.405,0.702,0.660,���쓌,3.0,��
2020/05/03,09:50,0.708,1.023,0.670,1.237,0.888,0.403,0.701,0.660,�쓌,3.2,��
2020/05/03,10:00,0.707,1.025,0.669,1.237,0.886,0.403,0.701,0.660,��쓌,5.9,��
2020/05/03,10:10,0.708,1.023,0.671,1.238,0.887,0.405,0.702,0.661,��쓌,5.8,��
2020/05/03,10:20,0.710,1.025,0.670,1.236,0.887,0.404,0.702,0.662,��쓌,6.5,��
2020/05/03,10:30,0.708,1.026,0.670,1.238,0.890,0.402,0.700,0.661,��쓌,6.6,��
2020/05/03,10:40,0.709,1.026,0.671,1.235,0.887,0.405,0.704,0.661,��쓌,6.4,��
2020/05/03,10:50,0.709,1.025,0.671,1.238,0.887,0.403,0.703,0.662,��쓌,6.3,��
2020/05/03,11:00,0.710,1.025,0.672,1.235,0.889,0.405,0.702,0.661,��쓌,6.3,��
2020/05/03,11:10,0.709,1.025,0.671,1.236,0.888,0.406,0.704,0.660,��,6.7,��
2020/05/03,11:20,0.710,1.027,0.669,1.236,0.890,0.404,0.702,0.662,��쓌,6.7,��
2020/05/03,11:30,0.710,1.028,0.673,1.234,0.889,0.403,0.701,0.661,��쓌,6.6,��
2020/05/03,11:40,0.709,1.028,0.670,1.235,0.890,0.404,0.701,0.661,��,7.5,��
2020/05/03,11:50,0.709,1.029,0.671,1.235,0.889,0.404,0.701,0.663,��,6.8,��
2020/05/03,12:00,0.708,1.027,0.671,1.236,0.890,0.404,0.701,0.662,��,7.7,��
2020/05/03,12:10,0.710,1.027,0.671,1.237,0.889,0.406,0.702,0.660,��,8.3,��
2020/05/03,12:20,0.707,1.027,0.670,1.236,0.888,0.404,0.702,0.660,��,7.6,��
2020/05/03,12:30,0.711,1.031,0.672,1.236,0.891,0.406,0.702,0.662,��,7.9,��
2020/05/03,12:40,0.710,1.027,0.671,1.234,0.888,0.406,0.703,0.662,��,7.1,��
2020/05/03,12:50,0.708,1.027,0.671,1.237,0.890,0.406,0.704,0.661,��,7.0,��
2020/05/03,13:00,0.710,1.028,0.671,1.236,0.891,0.406,0.702,0.660,��,6.4,��
2020/05/03,13:10,0.710,1.029,0.671,1.237,0.890,0.407,0.703,0.660,��,5.6,��
2020/05/03,13:20,0.710,1.031,0.670,1.237,0.889,0.407,0.703,0.661,��,6.7,��
2020/05/03,13:30,0.710,1.027,0.671,1.236,0.890,0.405,0.703,0.661,��,6.3,��
2020/05/03,13:40,0.710,1.027,0.673,1.236,0.890,0.405,0.704,0.661,��,6.7,��
2020/05/03,13:50,0.710,1.029,0.670,1.236,0.889,0.407,0.702,0.662,��,7.9,��
2020/05/03,14:00,0.709,1.029,0.671,1.236,0.889,0.406,0.703,0.660,��,8.5,��
2020/05/03,14:10,0.709,1.030,0.671,1.237,0.890,0.406,0.702,0.662,��쓌,9.9,��
2020/05/03,14:20,0.710,1.029,0.671,1.237,0.890,0.406,0.703,0.660,��,8.4,��
2020/05/03,14:30,0.710,1.029,0.671,1.238,0.890,0.406,0.703,0.661,��,8.7,��
2020/05/03,14:40,0.709,1.032,0.672,1.236,0.892,0.406,0.703,0.661,��,8.9,��
2020/05/03,14:50,0.710,1.029,0.672,1.238,0.891,0.405,0.703,0.662,��,7.9,��
2020/05/03,15:00,0.710,1.029,0.671,1.237,0.891,0.406,0.702,0.660,��,8.4,��
2020/05/03,15:10,0.710,1.029,0.674,1.237,0.891,0.405,0.704,0.662,��,8.4,��
2020/05/03,15:20,0.712,1.029,0.673,1.238,0.890,0.406,0.704,0.662,��,9.8,��
2020/05/03,15:30,0.710,1.027,0.671,1.238,0.892,0.405,0.703,0.662,��,9.6,��
2020/05/03,15:40,0.709,1.030,0.671,1.237,0.891,0.407,0.704,0.662,��,11.3,��
2020/05/03,15:50,0.711,1.031,0.673,1.239,0.891,0.406,0.704,0.662,��,10.2,��
2020/05/03,16:00,0.710,1.029,0.671,1.238,0.889,0.406,0.705,0.663,��,9.1,��
2020/05/03,16:10,0.709,1.028,0.670,1.240,0.890,0.405,0.702,0.663,��,8.9,��
2020/05/03,16:20,0.711,1.028,0.671,1.237,0.890,0.405,0.704,0.664,��,9.3,��
2020/05/03,16:30,0.710,1.028,0.671,1.238,0.890,0.407,0.702,0.662,��,9.4,��
2020/05/03,16:40,0.711,1.029,0.671,1.237,0.893,0.407,0.703,0.662,��,12.0,��
2020/05/03,16:50,0.712,1.030,0.671,1.238,0.890,0.407,0.702,0.661,��,11.3,��
2020/05/03,17:00,0.711,1.030,0.672,1.238,0.891,0.406,0.704,0.662,��,10.3,��
2020/05/03,17:10,0.712,1.030,0.672,1.239,0.891,0.406,0.702,0.662,��,9.7,��
2020/05/03,17:20,0.708,1.028,0.672,1.239,0.890,0.405,0.702,0.663,��,10.2,��
2020/05/03,17:30,0.711,1.029,0.674,1.240,0.890,0.406,0.703,0.663,��,8.9,��
2020/05/03,17:40,0.710,1.029,0.673,1.241,0.890,0.406,0.703,0.662,��,9.4,��
2020/05/03,17:50,0.711,1.030,0.674,1.241,0.889,0.404,0.704,0.662,��,10.5,��
2020/05/03,18:00,0.710,1.030,0.673,1.240,0.890,0.407,0.705,0.662,��,11.0,��
2020/05/03,18:10,0.709,1.029,0.670,1.242,0.892,0.405,0.704,0.665,��,9.7,��
2020/05/03,18:20,0.709,1.027,0.672,1.240,0.890,0.406,0.706,0.664,��,10.2,��
2020/05/03,18:30,0.711,1.028,0.673,1.241,0.890,0.406,0.704,0.663,��,10.2,��
2020/05/03,18:40,0.708,1.025,0.670,1.243,0.890,0.405,0.704,0.663,��,10.2,��
2020/05/03,18:50,0.710,1.028,0.673,1.241,0.891,0.407,0.705,0.663,��,9.8,��
2020/05/03,19:00,0.710,1.027,0.673,1.241,0.890,0.406,0.705,0.663,��,10.6,��
2020/05/03,19:10,0.711,1.030,0.673,1.243,0.889,0.407,0.704,0.662,��,9.6,��
2020/05/03,19:20,0.710,1.031,0.673,1.242,0.889,0.406,0.703,0.664,��,9.3,��
2020/05/03,19:30,0.710,1.029,0.675,1.241,0.893,0.407,0.703,0.664,��,9.3,��
2020/05/03,19:40,0.710,1.029,0.673,1.241,0.892,0.407,0.704,0.664,��,7.6,��
2020/05/03,19:50,0.709,1.028,0.673,1.242,0.892,0.406,0.705,0.664,��,7.0,��
2020/05/03,20:00,0.711,1.031,0.674,1.241,0.893,0.408,0.704,0.664,��,6.5,��
2020/05/03,20:10,0.712,1.029,0.674,1.240,0.891,0.408,0.704,0.665,��쐼,6.5,��
2020/05/03,20:20,0.711,1.030,0.673,1.238,0.893,0.408,0.703,0.665,��,7.1,��
2020/05/03,20:30,0.712,1.029,0.673,1.239,0.892,0.407,0.705,0.663,��,8.1,��
2020/05/03,20:40,0.713,1.028,0.675,1.240,0.893,0.407,0.702,0.663,��,8.9,��
2020/05/03,20:50,0.713,1.029,0.673,1.241,0.892,0.407,0.705,0.664,��,9.0,��
2020/05/03,21:00,0.712,1.031,0.675,1.240,0.893,0.407,0.706,0.665,��,8.4,��
2020/05/03,21:10,0.714,1.029,0.672,1.240,0.894,0.407,0.704,0.663,��,7.0,��
2020/05/03,21:20,0.710,1.029,0.673,1.242,0.893,0.406,0.704,0.663,��,7.2,��
2020/05/03,21:30,0.713,1.029,0.673,1.240,0.894,0.407,0.705,0.665,��,7.0,��
2020/05/03,21:40,0.713,1.031,0.675,1.239,0.892,0.408,0.703,0.664,��,6.3,��
2020/05/03,21:50,0.710,1.030,0.674,1.239,0.893,0.407,0.704,0.666,��,6.5,��
2020/05/03,22:00,0.710,1.029,0.673,1.242,0.893,0.408,0.704,0.665,��,7.3,��
2020/05/03,22:10,0.711,1.029,0.674,1.239,0.893,0.408,0.705,0.663,��,7.1,��
2020/05/03,22:20,0.712,1.027,0.676,1.242,0.894,0.407,0.704,0.664,��,6.4,��
2020/05/03,22:30,0.709,1.028,0.675,1.240,0.892,0.407,0.702,0.666,��,7.8,��
2020/05/03,22:40,0.712,1.028,0.674,1.242,0.894,0.406,0.704,0.664,��,8.4,��
2020/05/03,22:50,0.710,1.029,0.675,1.243,0.891,0.407,0.704,0.663,��,8.0,��
2020/05/03,23:00,0.713,1.028,0.672,1.241,0.891,0.406,0.703,0.664,��,9.3,��
2020/05/03,23:10,0.711,1.028,0.672,1.241,0.890,0.406,0.706,0.664,��,7.0,��
2020/05/03,23:20,0.712,1.030,0.673,1.242,0.891,0.407,0.704,0.663,��,6.8,��
2020/05/03,23:30,0.712,1.031,0.675,1.240,0.890,0.406,0.704,0.665,��,7.6,��
2020/05/03,23:40,0.713,1.029,0.673,1.241,0.891,0.407,0.706,0.663,��,9.3,��
2020/05/03,23:50,0.710,1.031,0.672,1.242,0.889,0.407,0.703,0.663,��,9.4,��
